Location: Siloam Springs
(36.1881°N, 94.5403°W)
Time: 06:31:48
(UTC-05:00)

CUBESAT XI-V - Pass Details

Date: 30 May 2024
Orbit: 657 x 679 km, 98.2° (Epoch: 16 June)

Event Time Altitude Azimuth Distance (km) Brightness Sun altitude
Exits shadow 04:15:06 27° 266° (W) 1,260 ? -18.1°
Drops below altitude 10° 04:18:50 10° 322° (NW) 2,074 ? -17.6°
Sets 04:21:21 0° 334° (NNW) 2,990 ? -17.3°
